Year,Month,Day,Hour,Minute,Value (Times are PST for temperature in C)
2013,04,23,00,02,7.80
2013,04,23,00,03,7.80
2013,04,23,00,04,7.80
2013,04,23,00,05,7.80
2013,04,23,00,06,7.80
2013,04,23,00,07,7.80
2013,04,23,00,09,7.80
2013,04,23,00,10,7.80
2013,04,23,00,11,7.80
2013,04,23,00,12,7.80
2013,04,23,00,13,7.90
2013,04,23,00,14,7.90
2013,04,23,00,17,8.00
2013,04,23,00,18,8.10
2013,04,23,00,19,8.10
2013,04,23,00,20,8.20
2013,04,23,00,21,8.20
2013,04,23,00,22,8.20
2013,04,23,00,23,8.20
2013,04,23,00,24,8.20
2013,04,23,00,25,8.20
2013,04,23,00,27,8.20
2013,04,23,00,28,8.20
2013,04,23,00,29,8.20
2013,04,23,00,30,8.20
2013,04,23,00,31,8.20
2013,04,23,00,32,8.20
2013,04,23,00,33,8.20
2013,04,23,00,34,8.20
2013,04,23,00,35,8.10
2013,04,23,00,36,8.10
2013,04,23,00,38,8.10
2013,04,23,00,39,8.10
2013,04,23,00,40,8.10
2013,04,23,00,41,8.10
2013,04,23,00,42,8.00
2013,04,23,00,43,8.00
2013,04,23,00,44,8.00
2013,04,23,00,45,8.00
2013,04,23,00,46,8.00
2013,04,23,00,48,7.90
2013,04,23,00,49,7.90
2013,04,23,00,50,7.90
2013,04,23,00,52,7.90
2013,04,23,00,53,8.00
2013,04,23,00,54,8.00
2013,04,23,00,56,8.00
2013,04,23,00,57,7.90
2013,04,23,00,58,7.90
2013,04,23,00,59,7.90
2013,04,23,01,00,7.80
2013,04,23,01,02,7.80
2013,04,23,01,03,7.70
2013,04,23,01,07,7.50
2013,04,23,01,08,7.40
2013,04,23,01,09,7.30
2013,04,23,01,10,7.20
2013,04,23,01,11,7.20
2013,04,23,01,12,7.10
2013,04,23,01,13,7.00
2013,04,23,01,14,6.90
2013,04,23,01,15,6.90
2013,04,23,01,16,6.90
2013,04,23,01,18,6.90
2013,04,23,01,19,6.90
2013,04,23,01,20,6.90
2013,04,23,01,21,6.90
2013,04,23,01,23,6.90
2013,04,23,01,24,6.90
2013,04,23,01,25,6.90
2013,04,23,01,26,7.00
2013,04,23,01,27,7.00
2013,04,23,01,29,7.00
2013,04,23,01,30,7.00
2013,04,23,01,31,7.10
2013,04,23,01,32,7.00
2013,04,23,01,34,7.00
2013,04,23,01,35,6.90
2013,04,23,01,36,6.90
2013,04,23,01,37,6.80
2013,04,23,01,38,6.80
2013,04,23,01,39,6.80
2013,04,23,01,40,6.80
2013,04,23,01,41,6.70
2013,04,23,01,42,6.70
2013,04,23,01,43,6.70
2013,04,23,01,44,6.60
2013,04,23,01,45,6.60
2013,04,23,01,46,6.50
2013,04,23,01,47,6.50
2013,04,23,01,48,6.40
2013,04,23,01,49,6.40
2013,04,23,01,50,6.30
2013,04,23,01,51,6.30
2013,04,23,01,53,6.20
2013,04,23,01,54,6.20
2013,04,23,01,55,6.20
2013,04,23,01,56,6.20
2013,04,23,01,57,6.20
2013,04,23,01,58,6.20
2013,04,23,01,59,6.20
2013,04,23,02,00,6.20
2013,04,23,02,01,6.20
2013,04,23,02,02,6.30
2013,04,23,02,03,6.30
2013,04,23,02,04,6.30
2013,04,23,02,05,6.40
2013,04,23,02,06,6.40
2013,04,23,02,07,6.40
2013,04,23,02,08,6.50
2013,04,23,02,09,6.60
2013,04,23,02,11,6.70
2013,04,23,02,12,6.80
2013,04,23,02,13,6.80
2013,04,23,02,14,6.80
2013,04,23,02,15,6.90
2013,04,23,02,16,6.90
2013,04,23,02,17,6.90
2013,04,23,02,18,6.90
2013,04,23,02,19,6.80
2013,04,23,02,20,6.80
2013,04,23,02,22,6.80
2013,04,23,02,23,6.70
2013,04,23,02,24,6.70
2013,04,23,02,25,6.70
2013,04,23,02,26,6.60
2013,04,23,02,27,6.60
2013,04,23,02,28,6.50
2013,04,23,02,29,6.40
2013,04,23,02,31,6.40
2013,04,23,02,32,6.30
2013,04,23,02,33,6.30
2013,04,23,02,34,6.30
2013,04,23,02,35,6.30
2013,04,23,02,36,6.20
2013,04,23,02,37,6.20
2013,04,23,02,38,6.10
2013,04,23,02,39,6.10
2013,04,23,02,40,6.10
2013,04,23,02,41,6.00
2013,04,23,02,42,6.00
2013,04,23,02,43,5.90
2013,04,23,02,44,5.90
2013,04,23,02,45,5.90
2013,04,23,02,46,5.90
2013,04,23,02,47,5.90
2013,04,23,02,49,5.90
2013,04,23,02,50,5.90
2013,04,23,02,51,5.90
2013,04,23,02,52,5.90
2013,04,23,02,53,5.90
2013,04,23,02,54,5.90
2013,04,23,02,55,5.90
2013,04,23,02,56,5.90
2013,04,23,02,57,5.90
2013,04,23,02,59,5.90
2013,04,23,03,00,5.90
2013,04,23,03,01,5.90
2013,04,23,03,02,5.90
2013,04,23,03,04,5.90
2013,04,23,03,05,5.80
2013,04,23,03,06,5.80
2013,04,23,03,08,5.80
2013,04,23,03,09,5.70
2013,04,23,03,10,5.60
2013,04,23,03,11,5.50
2013,04,23,03,13,5.40
2013,04,23,03,14,5.30
2013,04,23,03,15,5.30
2013,04,23,03,16,5.40
2013,04,23,03,18,5.40
2013,04,23,03,19,5.50
2013,04,23,03,20,5.60
2013,04,23,03,21,5.60
2013,04,23,03,23,5.70
2013,04,23,03,24,5.70
2013,04,23,03,25,5.60
2013,04,23,03,27,5.60
2013,04,23,03,28,5.50
2013,04,23,03,29,5.60
2013,04,23,03,31,5.60
2013,04,23,03,32,5.70
2013,04,23,03,33,5.70
2013,04,23,03,34,5.70
2013,04,23,03,36,5.60
2013,04,23,03,37,5.50
2013,04,23,03,38,5.40
2013,04,23,03,39,5.40
2013,04,23,03,41,5.40
2013,04,23,03,42,5.40
2013,04,23,03,43,5.40
2013,04,23,03,44,5.40
2013,04,23,03,46,5.40
2013,04,23,03,47,5.40
2013,04,23,03,48,5.50
2013,04,23,03,49,5.50
2013,04,23,03,51,5.50
2013,04,23,03,52,5.40
2013,04,23,03,53,5.40
2013,04,23,03,54,5.40
2013,04,23,03,56,5.40
2013,04,23,03,57,5.40
2013,04,23,03,58,5.40
2013,04,23,03,59,5.40
2013,04,23,04,01,5.40
2013,04,23,04,02,5.30
2013,04,23,04,03,5.40
2013,04,23,04,04,5.40
2013,04,23,04,05,5.40
2013,04,23,04,06,5.50
2013,04,23,04,07,5.60
2013,04,23,04,09,5.70
2013,04,23,04,10,5.70
2013,04,23,04,11,5.70
2013,04,23,04,12,5.70
2013,04,23,04,13,5.60
2013,04,23,04,14,5.40
2013,04,23,04,15,5.30
2013,04,23,04,16,5.10
2013,04,23,04,18,4.90
2013,04,23,04,19,4.70
2013,04,23,04,20,4.60
2013,04,23,04,22,4.40
2013,04,23,04,23,4.30
2013,04,23,04,24,4.30
2013,04,23,04,26,4.30
2013,04,23,04,27,4.40
2013,04,23,04,28,4.50
2013,04,23,04,29,4.60
2013,04,23,04,31,4.70
2013,04,23,04,32,4.80
2013,04,23,04,33,4.80
2013,04,23,04,34,4.80
2013,04,23,04,36,4.80
2013,04,23,04,37,4.90
2013,04,23,04,38,4.90
2013,04,23,04,39,4.80
2013,04,23,04,41,4.70
2013,04,23,04,42,4.50
2013,04,23,04,43,4.40
2013,04,23,04,44,4.40
2013,04,23,04,46,4.40
2013,04,23,04,47,4.40
2013,04,23,04,48,4.50
2013,04,23,04,50,4.60
2013,04,23,04,51,4.70
2013,04,23,04,52,4.80
2013,04,23,04,53,4.90
2013,04,23,04,55,4.90
2013,04,23,04,56,5.10
2013,04,23,04,57,5.10
2013,04,23,04,58,5.10
2013,04,23,05,00,5.00
2013,04,23,05,01,4.90
2013,04,23,05,02,4.80
2013,04,23,05,03,4.80
2013,04,23,05,05,4.70
2013,04,23,05,06,4.60
2013,04,23,05,07,4.50
2013,04,23,05,08,4.50
2013,04,23,05,10,4.40
2013,04,23,05,11,4.30
2013,04,23,05,12,4.30
2013,04,23,05,13,4.20
2013,04,23,05,15,4.20
2013,04,23,05,16,4.20
2013,04,23,05,17,4.20
2013,04,23,05,18,4.20
2013,04,23,05,19,4.20
2013,04,23,05,20,4.30
2013,04,23,05,21,4.30
2013,04,23,05,22,4.30
2013,04,23,05,23,4.30
2013,04,23,05,25,4.40
2013,04,23,05,26,4.40
2013,04,23,05,27,4.50
2013,04,23,05,29,4.60
2013,04,23,05,30,4.70
2013,04,23,05,31,4.70
2013,04,23,05,32,4.70
2013,04,23,05,33,4.70
2013,04,23,05,34,4.70
2013,04,23,05,35,4.60
2013,04,23,05,36,4.60
2013,04,23,05,38,4.50
2013,04,23,05,39,4.30
2013,04,23,05,40,4.30
2013,04,23,05,41,4.10
2013,04,23,05,43,4.10
2013,04,23,05,44,3.90
2013,04,23,05,45,3.80
2013,04,23,05,46,3.70
2013,04,23,05,48,3.70
2013,04,23,05,49,3.70
2013,04,23,05,50,3.70
2013,04,23,05,51,3.80
2013,04,23,05,53,3.80
2013,04,23,05,54,3.90
2013,04,23,05,55,4.00
2013,04,23,05,56,4.10
2013,04,23,05,58,4.10
2013,04,23,05,59,4.20
2013,04,23,06,00,4.30
2013,04,23,06,01,4.30
2013,04,23,06,02,4.40
2013,04,23,06,03,4.40
2013,04,23,06,04,4.50
2013,04,23,06,05,4.60
2013,04,23,06,06,4.60
2013,04,23,06,07,4.60
2013,04,23,06,08,4.60
2013,04,23,06,09,4.60
2013,04,23,06,10,4.70
2013,04,23,06,11,4.70
2013,04,23,06,12,4.70
2013,04,23,06,13,4.80
2013,04,23,06,14,4.80
2013,04,23,06,15,4.80
2013,04,23,06,16,4.80
2013,04,23,06,18,4.80
2013,04,23,06,19,4.80
2013,04,23,06,20,4.80
2013,04,23,06,21,4.80
2013,04,23,06,22,4.80
2013,04,23,06,23,4.80
2013,04,23,06,24,4.70
2013,04,23,06,25,4.70
2013,04,23,06,26,4.70
2013,04,23,06,27,4.70
2013,04,23,06,29,4.70
2013,04,23,06,30,4.70
2013,04,23,06,31,4.60
2013,04,23,06,32,4.60
2013,04,23,06,34,4.60
2013,04,23,06,35,4.60
2013,04,23,06,36,4.50
2013,04,23,06,37,4.60
2013,04,23,06,38,4.60
2013,04,23,06,39,4.60
2013,04,23,06,40,4.60
2013,04,23,06,41,4.70
2013,04,23,06,43,4.70
2013,04,23,06,44,4.70
2013,04,23,06,45,4.70
2013,04,23,06,46,4.70
2013,04,23,06,48,4.60
2013,04,23,06,49,4.60
2013,04,23,06,50,4.50
2013,04,23,06,51,4.60
2013,04,23,06,52,4.50
2013,04,23,06,54,4.50
2013,04,23,06,55,4.50
2013,04,23,06,56,4.50
2013,04,23,06,58,4.40
2013,04,23,06,59,4.40
2013,04,23,07,00,4.40
2013,04,23,07,01,4.40
2013,04,23,07,02,4.40
2013,04,23,07,03,4.40
2013,04,23,07,04,4.50
2013,04,23,07,05,4.60
2013,04,23,07,06,4.60
2013,04,23,07,08,4.60
2013,04,23,07,09,4.70
2013,04,23,07,10,4.80
2013,04,23,07,12,4.80
2013,04,23,07,13,4.80
2013,04,23,07,14,4.80
2013,04,23,07,16,4.90
2013,04,23,07,17,4.90
2013,04,23,07,18,4.90
2013,04,23,07,19,4.90
2013,04,23,07,21,4.90
2013,04,23,07,22,4.90
2013,04,23,07,23,5.00
2013,04,23,07,24,5.00
2013,04,23,07,26,5.10
2013,04,23,07,27,5.10
2013,04,23,07,28,5.10
2013,04,23,07,29,5.10
2013,04,23,07,31,5.20
2013,04,23,07,32,5.20
2013,04,23,07,33,5.20
2013,04,23,07,34,5.30
2013,04,23,07,36,5.30
2013,04,23,07,37,5.30
2013,04,23,07,38,5.30
2013,04,23,07,39,5.30
2013,04,23,07,41,5.40
2013,04,23,07,42,5.40
2013,04,23,07,43,5.50
2013,04,23,07,44,5.50
2013,04,23,07,45,5.60
2013,04,23,07,46,5.60
2013,04,23,07,47,5.60
2013,04,23,07,48,5.70
2013,04,23,07,49,5.70
2013,04,23,07,50,5.70
2013,04,23,07,51,5.80
2013,04,23,07,52,5.80
2013,04,23,07,54,5.80
2013,04,23,07,55,5.80
2013,04,23,07,56,5.90
2013,04,23,07,57,5.90
2013,04,23,07,58,5.90
2013,04,23,07,59,5.90
2013,04,23,08,00,5.90
2013,04,23,08,01,5.90
2013,04,23,08,02,5.90
2013,04,23,08,03,5.90
2013,04,23,08,04,5.80
2013,04,23,08,05,5.80
2013,04,23,08,06,5.80
2013,04,23,08,07,5.80
2013,04,23,08,08,5.80
2013,04,23,08,09,5.80
2013,04,23,08,10,5.80
2013,04,23,08,11,5.80
2013,04,23,08,12,5.80
2013,04,23,08,14,5.80
2013,04,23,08,15,5.90
2013,04,23,08,16,5.90
2013,04,23,08,18,5.90
2013,04,23,08,19,6.00
2013,04,23,08,20,6.10
2013,04,23,08,21,6.10
2013,04,23,08,23,6.20
2013,04,23,08,24,6.20
2013,04,23,08,25,6.30
2013,04,23,08,27,6.30
2013,04,23,08,28,6.40
2013,04,23,08,29,6.50
2013,04,23,08,30,6.60
2013,04,23,08,32,6.60
2013,04,23,08,33,6.70
2013,04,23,08,34,6.70
2013,04,23,08,35,6.80
2013,04,23,08,37,6.80
2013,04,23,08,38,6.90
2013,04,23,08,39,6.90
2013,04,23,08,40,7.00
2013,04,23,08,42,7.10
2013,04,23,08,43,7.10
2013,04,23,08,44,7.20
2013,04,23,08,45,7.30
2013,04,23,08,46,7.30
2013,04,23,08,47,7.30
2013,04,23,08,48,7.40
2013,04,23,08,49,7.40
2013,04,23,08,51,7.60
2013,04,23,08,52,7.60
2013,04,23,08,53,7.70
2013,04,23,08,54,7.70
2013,04,23,08,56,7.80
2013,04,23,08,57,7.80
2013,04,23,08,58,7.90
2013,04,23,09,00,7.90
2013,04,23,09,01,8.00
2013,04,23,09,02,8.10
2013,04,23,09,03,8.10
2013,04,23,09,05,8.20
2013,04,23,09,06,8.20
2013,04,23,09,07,8.20
2013,04,23,09,08,8.30
2013,04,23,09,10,8.30
2013,04,23,09,11,8.30
2013,04,23,09,12,8.40
2013,04,23,09,13,8.40
2013,04,23,09,15,8.40
2013,04,23,09,16,8.50
2013,04,23,09,17,8.50
2013,04,23,09,18,8.60
2013,04,23,09,20,8.60
2013,04,23,09,21,8.60
2013,04,23,09,22,8.70
2013,04,23,09,23,8.70
2013,04,23,09,25,8.80
2013,04,23,09,26,8.80
2013,04,23,09,27,8.90
2013,04,23,09,29,8.90
2013,04,23,09,30,9.10
2013,04,23,09,31,9.10
2013,04,23,09,33,9.20
2013,04,23,09,34,9.20
2013,04,23,09,35,9.20
2013,04,23,09,36,9.20
2013,04,23,09,37,9.30
2013,04,23,09,38,9.30
2013,04,23,09,39,9.30
2013,04,23,09,40,9.30
2013,04,23,09,41,9.30
2013,04,23,09,42,9.40
2013,04,23,09,43,9.40
2013,04,23,09,44,9.50
2013,04,23,09,45,9.60
2013,04,23,09,46,9.70
2013,04,23,09,47,9.70
2013,04,23,09,48,9.80
2013,04,23,09,49,9.90
2013,04,23,09,50,10.00
2013,04,23,09,51,10.10
2013,04,23,09,52,10.20
2013,04,23,09,54,10.20
2013,04,23,09,55,10.30
2013,04,23,09,56,10.30
2013,04,23,09,58,10.30
2013,04,23,09,59,10.30
2013,04,23,10,00,10.30
2013,04,23,10,01,10.30
2013,04,23,10,03,10.30
2013,04,23,10,04,10.20
2013,04,23,10,05,10.20
2013,04,23,10,06,10.20
2013,04,23,10,08,10.20
2013,04,23,10,09,10.20
2013,04,23,10,10,10.10
2013,04,23,10,11,10.10
2013,04,23,10,13,10.00
2013,04,23,10,14,9.90
2013,04,23,10,15,9.90
2013,04,23,10,16,9.80
2013,04,23,10,18,9.80
2013,04,23,10,19,9.70
2013,04,23,10,20,9.70
2013,04,23,10,21,9.70
2013,04,23,10,23,9.70
2013,04,23,10,24,9.70
2013,04,23,10,25,9.70
2013,04,23,10,26,9.70
2013,04,23,10,27,9.70
2013,04,23,10,29,9.80
2013,04,23,10,30,9.80
2013,04,23,10,31,9.80
2013,04,23,10,33,9.80
2013,04,23,10,34,9.80
2013,04,23,10,35,9.80
2013,04,23,10,36,9.80
2013,04,23,10,38,9.80
2013,04,23,10,39,9.80
2013,04,23,10,40,9.80
2013,04,23,10,41,9.90
2013,04,23,10,42,9.90
2013,04,23,10,43,9.80
2013,04,23,10,44,9.80
2013,04,23,10,45,9.80
2013,04,23,10,46,9.80
2013,04,23,10,48,9.70
2013,04,23,10,49,9.70
2013,04,23,10,50,9.60
2013,04,23,10,52,9.60
2013,04,23,10,53,9.60
2013,04,23,10,54,9.60
2013,04,23,10,55,9.50
2013,04,23,10,56,9.40
2013,04,23,10,57,9.40
2013,04,23,10,58,9.50
2013,04,23,10,59,9.40
2013,04,23,11,00,9.50
2013,04,23,11,01,9.40
2013,04,23,11,02,9.40
2013,04,23,11,03,9.40
2013,04,23,11,04,9.50
2013,04,23,11,06,9.60
2013,04,23,11,07,9.70
2013,04,23,11,08,9.70
2013,04,23,11,09,9.80
2013,04,23,11,11,9.80
2013,04,23,11,12,9.90
2013,04,23,11,13,10.00
2013,04,23,11,14,10.10
2013,04,23,11,16,10.10
2013,04,23,11,17,10.20
2013,04,23,11,18,10.20
2013,04,23,11,20,10.20
2013,04,23,11,21,10.20
2013,04,23,11,22,10.20
2013,04,23,11,23,10.20
2013,04,23,11,24,10.20
2013,04,23,11,25,10.30
2013,04,23,11,26,10.30
2013,04,23,11,27,10.40
2013,04,23,11,29,10.40
2013,04,23,11,30,10.40
2013,04,23,11,31,10.40
2013,04,23,11,32,10.50
2013,04,23,11,34,10.50
2013,04,23,11,35,10.60
2013,04,23,11,36,10.70
2013,04,23,11,37,10.80
2013,04,23,11,38,10.90
2013,04,23,11,40,11.10
2013,04,23,11,41,11.20
2013,04,23,11,42,11.30
2013,04,23,11,43,11.30
2013,04,23,11,45,11.40
2013,04,23,11,46,11.40
2013,04,23,11,47,11.40
2013,04,23,11,48,11.40
2013,04,23,11,49,11.40
2013,04,23,11,51,11.40
2013,04,23,11,52,11.50
2013,04,23,11,53,11.50
2013,04,23,11,54,11.50
2013,04,23,11,56,11.60
2013,04,23,11,57,11.60
2013,04,23,11,58,11.60
2013,04,23,11,59,11.70
2013,04,23,12,01,11.80
2013,04,23,12,02,12.00
2013,04,23,12,03,12.10
2013,04,23,12,04,12.20
2013,04,23,12,05,12.20
2013,04,23,12,06,12.20
2013,04,23,12,07,12.20
2013,04,23,12,08,12.20
2013,04,23,12,10,12.20
2013,04,23,12,11,12.20
2013,04,23,12,12,12.20
2013,04,23,12,13,12.20
2013,04,23,12,14,12.20
2013,04,23,12,15,12.30
2013,04,23,12,16,12.30
2013,04,23,12,17,12.40
2013,04,23,12,18,12.60
2013,04,23,12,20,12.70
2013,04,23,12,21,12.70
2013,04,23,12,22,12.70
2013,04,23,12,23,12.70
2013,04,23,12,24,12.60
2013,04,23,12,26,12.70
2013,04,23,12,27,12.70
2013,04,23,12,28,12.80
2013,04,23,12,29,12.80
2013,04,23,12,30,12.70
2013,04,23,12,31,12.70
2013,04,23,12,32,12.70
2013,04,23,12,33,12.60
2013,04,23,12,34,12.70
2013,04,23,12,35,12.70
2013,04,23,12,36,12.60
2013,04,23,12,37,12.60
2013,04,23,12,38,12.60
2013,04,23,12,39,12.60
2013,04,23,12,40,12.60
2013,04,23,12,42,12.70
2013,04,23,12,43,12.80
2013,04,23,12,44,12.90
2013,04,23,12,45,12.90
2013,04,23,12,47,12.90
2013,04,23,12,48,12.80
2013,04,23,12,49,12.70
2013,04,23,12,50,12.60
2013,04,23,12,51,12.60
2013,04,23,12,52,12.60
2013,04,23,12,53,12.60
2013,04,23,12,54,12.60
2013,04,23,12,56,12.70
2013,04,23,12,57,12.90
2013,04,23,12,58,13.10
2013,04,23,12,59,13.20
2013,04,23,13,00,13.20
2013,04,23,13,02,13.10
2013,04,23,13,03,13.10
2013,04,23,13,04,13.10
2013,04,23,13,05,13.20
2013,04,23,13,06,13.20
2013,04,23,13,08,13.20
2013,04,23,13,09,13.20
2013,04,23,13,10,13.10
2013,04,23,13,12,13.00
2013,04,23,13,13,12.90
2013,04,23,13,14,12.90
2013,04,23,13,16,13.00
2013,04,23,13,17,13.00
2013,04,23,13,18,13.10
2013,04,23,13,19,13.10
2013,04,23,13,20,13.10
2013,04,23,13,21,13.10
2013,04,23,13,22,13.20
2013,04,23,13,23,13.20
2013,04,23,13,25,13.30
2013,04,23,13,26,13.30
2013,04,23,13,27,13.30
2013,04,23,13,29,13.20
2013,04,23,13,30,13.20
2013,04,23,13,31,13.20
2013,04,23,13,32,13.30
2013,04,23,13,33,13.30
2013,04,23,13,34,13.40
2013,04,23,13,35,13.40
2013,04,23,13,36,13.40
2013,04,23,13,37,13.40
2013,04,23,13,38,13.40
2013,04,23,13,39,13.50
2013,04,23,13,40,13.50
2013,04,23,13,41,13.50
2013,04,23,13,42,13.50
2013,04,23,13,43,13.60
2013,04,23,13,44,13.60
2013,04,23,13,46,13.70
2013,04,23,13,47,13.70
2013,04,23,13,48,13.70
2013,04,23,13,49,13.70
2013,04,23,13,50,13.70
2013,04,23,13,51,13.70
2013,04,23,13,52,13.80
2013,04,23,13,53,13.90
2013,04,23,13,54,14.00
2013,04,23,13,55,14.10
2013,04,23,13,57,14.10
2013,04,23,13,58,14.00
2013,04,23,13,59,13.80
2013,04,23,14,01,13.80
2013,04,23,14,02,13.80
2013,04,23,14,03,13.70
2013,04,23,14,04,13.60
2013,04,23,14,06,13.60
2013,04,23,14,07,13.60
2013,04,23,14,08,13.60
2013,04,23,14,09,13.60
2013,04,23,14,11,13.50
2013,04,23,14,12,13.40
2013,04,23,14,13,13.30
2013,04,23,14,15,13.30
2013,04,23,14,16,13.20
2013,04,23,14,17,13.20
2013,04,23,14,18,13.20
2013,04,23,14,19,13.20
2013,04,23,14,20,13.30
2013,04,23,14,21,13.30
2013,04,23,14,22,13.30
2013,04,23,14,23,13.30
2013,04,23,14,24,13.30
2013,04,23,14,25,13.30
2013,04,23,14,26,13.20
2013,04,23,14,27,13.30
2013,04,23,14,28,13.30
2013,04,23,14,29,13.30
2013,04,23,14,31,13.40
2013,04,23,14,32,13.60
2013,04,23,14,33,13.70
2013,04,23,14,34,13.80
2013,04,23,14,36,13.80
2013,04,23,14,37,13.80
2013,04,23,14,38,13.80
2013,04,23,14,39,13.90
2013,04,23,14,40,13.90
2013,04,23,14,41,13.90
2013,04,23,14,42,13.90
2013,04,23,14,44,14.00
2013,04,23,14,45,14.20
2013,04,23,14,46,14.20
2013,04,23,14,47,14.30
2013,04,23,14,48,14.30
2013,04,23,14,49,14.30
2013,04,23,14,50,14.30
2013,04,23,14,51,14.30
2013,04,23,14,53,14.30
2013,04,23,14,54,14.30
2013,04,23,14,55,14.30
2013,04,23,14,56,14.30
2013,04,23,14,57,14.30
2013,04,23,14,58,14.30
2013,04,23,14,59,14.10
2013,04,23,15,00,14.10
2013,04,23,15,01,14.00
2013,04,23,15,03,13.90
2013,04,23,15,04,13.90
2013,04,23,15,05,14.00
2013,04,23,15,06,14.10
2013,04,23,15,07,14.10
2013,04,23,15,08,14.20
2013,04,23,15,09,14.20
2013,04,23,15,10,14.20
2013,04,23,15,11,14.30
2013,04,23,15,13,14.40
2013,04,23,15,14,14.60
2013,04,23,15,15,14.60
2013,04,23,15,17,14.50
2013,04,23,15,18,14.40
2013,04,23,15,19,14.40
2013,04,23,15,20,14.40
2013,04,23,15,22,14.30
2013,04,23,15,23,14.30
2013,04,23,15,24,14.20
2013,04,23,15,25,14.00
2013,04,23,15,27,13.90
2013,04,23,15,28,13.90
2013,04,23,15,29,13.90
2013,04,23,15,30,14.00
2013,04,23,15,31,14.00
2013,04,23,15,32,14.00
2013,04,23,15,33,13.90
2013,04,23,15,34,14.00
2013,04,23,15,35,13.90
2013,04,23,15,36,13.90
2013,04,23,15,37,14.00
2013,04,23,15,38,14.10
2013,04,23,15,39,14.10
2013,04,23,15,40,14.10
2013,04,23,15,42,14.10
2013,04,23,15,43,14.10
2013,04,23,15,44,14.10
2013,04,23,15,46,14.10
2013,04,23,15,47,14.10
2013,04,23,15,48,14.10
2013,04,23,15,49,14.10
2013,04,23,15,50,14.10
2013,04,23,15,52,14.20
2013,04,23,15,53,14.10
2013,04,23,15,54,14.10
2013,04,23,15,56,14.00
2013,04,23,15,57,13.90
2013,04,23,15,58,13.90
2013,04,23,15,59,13.90
2013,04,23,16,00,13.90
2013,04,23,16,01,13.90
2013,04,23,16,02,13.90
2013,04,23,16,03,13.80
2013,04,23,16,04,13.80
2013,04,23,16,06,13.70
2013,04,23,16,07,13.70
2013,04,23,16,08,13.80
2013,04,23,16,09,13.90
2013,04,23,16,11,13.90
2013,04,23,16,12,14.00
2013,04,23,16,13,14.10
2013,04,23,16,14,14.20
2013,04,23,16,16,14.20
2013,04,23,16,17,14.30
2013,04,23,16,18,14.30
2013,04,23,16,20,14.20
2013,04,23,16,21,14.20
2013,04,23,16,22,14.30
2013,04,23,16,23,14.30
2013,04,23,16,24,14.30
2013,04,23,16,25,14.20
2013,04,23,16,26,14.00
2013,04,23,16,27,13.90
2013,04,23,16,29,13.90
2013,04,23,16,30,13.80
2013,04,23,16,31,13.80
2013,04,23,16,32,13.90
2013,04,23,16,33,13.90
2013,04,23,16,34,13.90
2013,04,23,16,35,13.90
2013,04,23,16,36,13.90
2013,04,23,16,37,14.00
2013,04,23,16,38,14.00
2013,04,23,16,39,14.00
2013,04,23,16,40,14.00
2013,04,23,16,41,14.00
2013,04,23,16,42,14.10
2013,04,23,16,43,14.10
2013,04,23,16,44,14.10
2013,04,23,16,45,14.10
2013,04,23,16,46,14.10
2013,04,23,16,47,14.10
2013,04,23,16,49,14.10
2013,04,23,16,50,14.10
2013,04,23,16,51,14.00
2013,04,23,16,53,14.00
2013,04,23,16,54,13.90
2013,04,23,16,55,14.00
2013,04,23,16,57,14.10
2013,04,23,16,58,14.10
2013,04,23,16,59,14.20
2013,04,23,17,00,14.20
2013,04,23,17,02,14.30
2013,04,23,17,03,14.30
2013,04,23,17,04,14.40
2013,04,23,17,06,14.40
2013,04,23,17,07,14.50
2013,04,23,17,08,14.40
2013,04,23,17,10,14.40
2013,04,23,17,11,14.30
2013,04,23,17,12,14.20
2013,04,23,17,13,14.20
2013,04,23,17,15,14.10
2013,04,23,17,16,14.10
2013,04,23,17,17,14.10
2013,04,23,17,18,14.10
2013,04,23,17,19,14.10
2013,04,23,17,20,14.20
2013,04,23,17,21,14.20
2013,04,23,17,23,14.20
2013,04,23,17,24,14.20
2013,04,23,17,25,14.20
2013,04,23,17,26,14.20
2013,04,23,17,28,14.20
2013,04,23,17,29,14.20
2013,04,23,17,30,14.20
2013,04,23,17,31,14.30
2013,04,23,17,32,14.30
2013,04,23,17,34,14.30
2013,04,23,17,35,14.30
2013,04,23,17,36,14.30
2013,04,23,17,38,14.40
2013,04,23,17,39,14.40
2013,04,23,17,40,14.40
2013,04,23,17,41,14.40
2013,04,23,17,42,14.40
2013,04,23,17,44,14.40
2013,04,23,17,45,14.30
2013,04,23,17,46,14.40
2013,04,23,17,47,14.40
2013,04,23,17,49,14.40
2013,04,23,17,50,14.40
2013,04,23,17,51,14.30
2013,04,23,17,52,14.30
2013,04,23,17,53,14.30
2013,04,23,17,54,14.20
2013,04,23,17,55,14.20
2013,04,23,17,56,14.20
2013,04,23,17,58,14.20
2013,04,23,17,59,14.20
2013,04,23,18,00,14.20
2013,04,23,18,01,14.20
2013,04,23,18,03,14.20
2013,04,23,18,04,14.20
2013,04,23,18,05,14.20
2013,04,23,18,06,14.30
2013,04,23,18,07,14.30
2013,04,23,18,08,14.30
2013,04,23,18,09,14.40
2013,04,23,18,10,14.50
2013,04,23,18,12,14.50
2013,04,23,18,13,14.50
2013,04,23,18,14,14.50
2013,04,23,18,15,14.40
2013,04,23,18,16,14.40
2013,04,23,18,17,14.30
2013,04,23,18,18,14.30
2013,04,23,18,19,14.20
2013,04,23,18,20,14.30
2013,04,23,18,21,14.30
2013,04,23,18,22,14.30
2013,04,23,18,23,14.30
2013,04,23,18,24,14.30
2013,04,23,18,26,14.30
2013,04,23,18,27,14.30
2013,04,23,18,28,14.30
2013,04,23,18,29,14.40
2013,04,23,18,31,14.40
2013,04,23,18,32,14.40
2013,04,23,18,33,14.40
2013,04,23,18,34,14.40
2013,04,23,18,35,14.40
2013,04,23,18,37,14.40
2013,04,23,18,38,14.40
2013,04,23,18,39,14.40
2013,04,23,18,40,14.50
2013,04,23,18,42,14.50
2013,04,23,18,43,14.60
2013,04,23,18,44,14.60
2013,04,23,18,45,14.60
2013,04,23,18,47,14.60
2013,04,23,18,48,14.60
2013,04,23,18,49,14.60
2013,04,23,18,51,14.60
2013,04,23,18,52,14.60
2013,04,23,18,53,14.60
2013,04,23,18,54,14.60
2013,04,23,18,56,14.60
2013,04,23,18,57,14.50
2013,04,23,18,58,14.50
2013,04,23,18,59,14.60
2013,04,23,19,01,14.60
2013,04,23,19,02,14.60
2013,04,23,19,03,14.60
2013,04,23,19,04,14.60
2013,04,23,19,05,14.60
2013,04,23,19,07,14.60
2013,04,23,19,08,14.60
2013,04,23,19,09,14.60
2013,04,23,19,10,14.60
2013,04,23,19,11,14.60
2013,04,23,19,13,14.40
2013,04,23,19,14,14.40
2013,04,23,19,15,14.40
2013,04,23,19,16,14.30
2013,04,23,19,17,14.30
2013,04,23,19,18,14.30
2013,04,23,19,19,14.30
2013,04,23,19,20,14.30
2013,04,23,19,21,14.20
2013,04,23,19,23,14.20
2013,04,23,19,24,14.20
2013,04,23,19,25,14.20
2013,04,23,19,26,14.20
2013,04,23,19,27,14.20
2013,04,23,19,28,14.10
2013,04,23,19,29,14.10
2013,04,23,19,30,14.10
2013,04,23,19,31,14.00
2013,04,23,19,32,14.10
2013,04,23,19,33,14.00
2013,04,23,19,34,14.00
2013,04,23,19,35,13.90
2013,04,23,19,37,13.90
2013,04,23,19,38,13.90
2013,04,23,19,39,13.90
2013,04,23,19,40,13.90
2013,04,23,19,41,13.80
2013,04,23,19,42,13.80
2013,04,23,19,43,13.80
2013,04,23,19,44,13.80
2013,04,23,19,45,13.80
2013,04,23,19,46,13.80
2013,04,23,19,47,13.80
2013,04,23,19,48,13.70
2013,04,23,19,49,13.70
2013,04,23,19,50,13.70
2013,04,23,19,51,13.70
2013,04,23,19,52,13.70
2013,04,23,19,53,13.70
2013,04,23,19,54,13.60
2013,04,23,19,55,13.60
2013,04,23,19,56,13.60
2013,04,23,19,58,13.60
2013,04,23,19,59,13.50
2013,04,23,20,00,13.50
2013,04,23,20,01,13.40
2013,04,23,20,02,13.40
2013,04,23,20,03,13.40
2013,04,23,20,04,13.40
2013,04,23,20,05,13.40
2013,04,23,20,06,13.30
2013,04,23,20,07,13.30
2013,04,23,20,08,13.30
2013,04,23,20,09,13.30
2013,04,23,20,10,13.30
2013,04,23,20,11,13.20
2013,04,23,20,12,13.20
2013,04,23,20,13,13.20
2013,04,23,20,14,13.10
2013,04,23,20,16,13.10
2013,04,23,20,17,13.00
2013,04,23,20,18,12.90
2013,04,23,20,19,12.90
2013,04,23,20,20,12.90
2013,04,23,20,22,12.80
2013,04,23,20,23,12.80
2013,04,23,20,24,12.80
2013,04,23,20,25,12.80
2013,04,23,20,27,12.70
2013,04,23,20,28,12.70
2013,04,23,20,29,12.70
2013,04,23,20,30,12.60
2013,04,23,20,31,12.60
2013,04,23,20,32,12.50
2013,04,23,20,33,12.40
2013,04,23,20,34,12.40
2013,04,23,20,35,12.30
2013,04,23,20,36,12.30
2013,04,23,20,37,12.20
2013,04,23,20,38,12.20
2013,04,23,20,39,12.10
2013,04,23,20,40,12.00
2013,04,23,20,41,11.90
2013,04,23,20,42,11.90
2013,04,23,20,43,11.90
2013,04,23,20,44,11.80
2013,04,23,20,46,11.80